Regional Weather Roundup
Issued by NWS

Home | Current Version | Previous Version | Graphics & Text | Print | Product List | Glossary On
Versions: 1 2 3 4 5 6 7 8 9 10 11 12 13 14 15 16 17 18 19 20 21 22 23 24 25 26 27 28 29 30 31 32 33 34 35 36 37 38 39 40 41 42 43 44 45 46 47 48 49 50
000
ASUS43 KIND 251859
RWRIN

WEATHER ROUNDUP FOR INDIANA
NATIONAL WEATHER SERVICE INDIANAPOLIS IN
300 PM EDT MON MAY 25 2015

NOTE: "FAIR" INDICATES FEW OR NO CLOUDS BELOW 12,000 FEET WITH NO
SIGNIFICANT WEATHER AND/OR OBSTRUCTIONS TO VISIBILITY.

* - STATION DOES NOT REPORT WEATHER SUCH AS PRECIPITATION OR FOG.

+ - STATION NOT QUALITY CONTROLLED BY THE NATIONAL WEATHER SERVICE.
    USE DATA WITH CAUTION...ESPECIALLY DEWPOINT AND RELATIVE
    HUMIDITY OBSERVATIONS.

INZ001>003-010>013-019-020-252000-
NORTHWEST INDIANA

CITY           SKY/WX    TMP DP  RH WIND       PRES   REMARKS
GARY /AIRPORT/ PTSUNNY   77  63  61 SW23G41   29.92R
RENSSELAER +   PTSUNNY   81  59  47 SW22G30   29.96S

$$

LMZ046-743>745-252000-
SOUTHERN LAKE MICHIGAN

STATION/POSITION TIME  TEMP    WIND        PRES    WAVE
                       AIR SEA DIR/SP/G            HT
                 (UTC) (F)     (DEG/KT/KT) (MB)    (FT)
BURNS HARBOR     1800   75     220/ 20/ 31 1013.2S
MICHIGAN CITY    1800   72     210/ 27/ 32   N/A
5NW MICH CITY    1800   63 52  250/ 12/ 17   N/A     4

$$

INZ004-005-014>016-021>024-252000-
NORTH CENTRAL INDIANA

CITY           SKY/WX    TMP DP  RH WIND       PRES   REMARKS
ELKHART        MOSUNNY   75  66  73 SW22G28   29.95R
GOSHEN         MOSUNNY   81  63  54 SW25G35   29.94S
PERU/GRISSOM   PTSUNNY   73  66  78 SW21G36   30.00R
SOUTH BEND     PTSUNNY   78  61  55 SW25G38   29.93F

$$

INZ006>009-017-018-025>027-252000-
NORTHEAST INDIANA

CITY           SKY/WX    TMP DP  RH WIND       PRES   REMARKS
ANGOLA *+      MOSUNNY   79  73  83 SW20G33   29.96F
FORT WAYNE     PTSUNNY   79  63  57 SW25G33   30.01F

$$

INZ028-029-035-036-043>045-051>053-252000-
WEST CENTRAL INDIANA

CITY           SKY/WX    TMP DP  RH WIND       PRES   REMARKS
CRAWFORDSVL +  PTSUNNY   79  55  43 SW21G30   30.02F
GREENCASTLE +  PTSUNNY   73  61  64 SW7G18    30.06S
LAFAYETTE      PTSUNNY   79  61  53 SW10G24   29.98F
TERRE HAUTE    PTSUNNY   79  66  64 S15G24    30.04F

$$

INZ030>032-037>040-046>048-054>057-064-065-252000-
CENTRAL INDIANA

CITY           SKY/WX    TMP DP  RH WIND       PRES   REMARKS
GREENWOOD *+   PTSUNNY   75  61  60 SW17G24   30.09F
INDIANAPOLIS   PTSUNNY   77  65  66 SW22G29   30.05F
-EAGLE CREEK   CLOUDY    75  66  73 S9G21     30.05F
KOKOMO *+      PTSUNNY   79  63  57 SW24G31   30.01F
MT COMFORT *+  PTSUNNY   75  59  57 SW23      30.08S
SHELBYVILLE    CLOUDY    79  64  60 S23G32    30.08F

$$

INZ033-034-041-042-049-050-058-059-252000-
EAST CENTRAL INDIANA

CITY           SKY/WX    TMP DP  RH WIND       PRES   REMARKS
MUNCIE         PTSUNNY   77  64  64 S17G28    30.06S

$$

INZ060-061-067>069-081>083-085>088-252000-
SOUTHWEST INDIANA

CITY           SKY/WX    TMP DP  RH WIND       PRES   REMARKS
EVANSVILLE     CLOUDY    76  66  71 S10       30.10S
HUNTINGBURG *+ CLOUDY    73  64  73 S13       30.11F

$$

INZ062-063-066-070>080-084-089>092-252000-
SOUTH CENTRAL AND SOUTHEAST INDIANA

CITY           SKY/WX    TMP DP  RH WIND       PRES   REMARKS
BLOOMINGTON    PTSUNNY   75  65  70 SW15      30.08F
MADISON *+     CLOUDY    72  63  73 S16       30.16F
SEYMOUR +      CLOUDY    77  63  61 S17       30.11F

$$



USA.gov is the U.S. government's official web portal to all federal, state and local government web resources and services.